< < Back
Terminal Aerodrome Forecast


Current Version              Previous Versions:   1  2  3  4  5  6  7  8  9  

Terminal Aerodrome Forecast

085
FTUS44 KOHX 301400 AAA
TAFCSV
TAF AMD
KCSV 301413Z 3014/3112 32012G18KT P6SM OVC012
     FM301800 36010G17KT P6SM BKN025
     FM302100 35010KT P6SM SCT045
     FM310100 04003KT P6SM SCT250=

Latest METAR

798
SAUS70 KWBC 310056
MTRCSV
METAR KCSV 310053Z AUTO 36004KT 10SM CLR 00/M08 A3037 RMK AO2 SLP297
T00001078


USA.gov is the U.S. government's official web portal to all federal, state and local government web resources and services.